Weather History for KEWR - December, 2011

Change the Weather History Date:

Wednesday, December 21, 2011

  Actual Average Record
Temperature  
Mean Temperature 52 °F 35 °F  
Max Temperature 62 °F 42 °F 64 °F (2013)
Min Temperature 41 °F 28 °F 0 °F (1942)
Degree Days  
Heating Degree Days 13 30  
Month to date heating degree days 453 567  
Since 1 July heating degree days 1112 1435  
Cooling Degree Days 0 0  
Month to date cooling degree days 0 0  
Year to date cooling degree days 1585 1192  
Growing Degree Days 2 (Base 50)    
Moisture  
Dew Point 49 °F    
Average Humidity 86    
Maximum Humidity 93    
Minimum Humidity 78    
Precipitation  
Precipitation 0.13 in 0.12 in 2.00 in (1973)
Month to date precipitation 2.40 2.64  
Year to date precipitation 67.80 45.08  
Snow  
Snow 0.00 in 0.20 in 3.30 in (1962)
Month to date snowfall 0.0 3.1  
Since 1 July snowfall 5.2 3.5  
Snow Depth 0.00 in    
Sea Level Pressure  
Sea Level Pressure 29.91 in    
Wind  
Wind Speed 8 mph (SSW)    
Max Wind Speed 36 mph    
Max Gust Speed 45 mph    
Visibility 7 miles    
Events Rain , Thunderstorm    
T = Trace of Precipitation, MM = Missing Value Source: NWS Daily Summary

Daily Weather History Graph

Daily Weather History Graph

Search for Another Location

Airport or City:

Trip Planner

Search our weather history database for the weather conditions in past years. The results will help you decide how hot, cold, wet, or windy it might be!

Date:

Astronomy

Dec. 21, 2011 Rise Set
Actual Time 7:16 AM EST 4:32 PM EST
Civil Twilight 6:45 AM EST 5:03 PM EST
Nautical Twilight 6:11 AM EST 5:37 PM EST
Astronomical Twilight 5:38 AM EST 6:11 PM EST
Moon 3:46 AM EST (12/21) 1:50 PM EST (12/21)
Length of Visible Light 10h 17m
Length of Day
9h 15m
Waning Crescent, 12% of the Moon is Illuminated
Dec 21
Waning Crescent
Dec 24
New
Jan 1
First Quarter
Jan 9
Full
Jan 16
Last Quarter

Hourly Weather History & Observations

Time (EST) Temp. Windchill Dew Point Humidity Pressure Visibility Wind Dir Wind Speed Gust Speed Precip Events Conditions
12:51 AM 42.1 °F - 37.9 °F 85% 30.14 in 10.0 mi Calm Calm - N/A   Overcast
1:51 AM 44.1 °F - 39.0 °F 82% 30.15 in 10.0 mi Calm Calm - N/A   Overcast
2:51 AM 43.0 °F - 39.0 °F 86% 30.14 in 9.0 mi Calm Calm - N/A   Overcast
3:51 AM 43.0 °F 41.3 °F 39.9 °F 89% 30.10 in 10.0 mi North 3.5 mph - N/A   Overcast
4:48 AM 44.6 °F 42.2 °F 39.2 °F 81% 30.08 in 10.0 mi NE 4.6 mph - N/A   Overcast
4:51 AM 44.1 °F 40.8 °F 39.9 °F 85% 30.08 in 10.0 mi NNE 5.8 mph - N/A   Overcast
5:51 AM 45.0 °F 43.5 °F 41.0 °F 86% 30.07 in 10.0 mi East 3.5 mph - N/A   Overcast
6:51 AM 48.0 °F - 43.0 °F 83% 30.06 in 10.0 mi Calm Calm - 0.00 in   Overcast
7:25 AM 50.0 °F - 46.4 °F 87% 30.03 in 8.0 mi Calm Calm - N/A   Overcast
7:51 AM 50.0 °F - 46.9 °F 89% 30.02 in 8.0 mi SE 4.6 mph - N/A   Overcast
8:51 AM 51.1 °F - 46.9 °F 86% 30.02 in 7.0 mi SSE 4.6 mph - N/A   Overcast
9:08 AM 50.0 °F - 46.4 °F 87% 30.02 in 1.5 mi South 4.6 mph - N/A   Overcast
9:17 AM 50.0 °F - 46.4 °F 87% 30.02 in 1.5 mi South 3.5 mph - 0.00 in   Light Drizzle
9:29 AM 50.0 °F - 48.2 °F 94% 30.01 in 0.8 mi Variable 3.5 mph - 0.00 in   Light Drizzle
9:51 AM 50.0 °F - 48.2 °F 94% 30.01 in 0.8 mi South 3.5 mph - N/A   Light Drizzle
10:23 AM 50.0 °F - 48.2 °F 94% 29.99 in 0.8 mi South 4.6 mph - 0.00 in   Light Drizzle
10:51 AM 51.1 °F - 48.9 °F 92% 29.97 in 1.0 mi South 3.5 mph - 0.00 in   Light Drizzle
11:23 AM 51.8 °F - 48.2 °F 88% 29.94 in 2.5 mi SSE 5.8 mph - 0.00 in   Overcast
11:47 AM 51.8 °F - 50.0 °F 94% 29.93 in 2.5 mi SSE 4.6 mph - 0.00 in   Overcast
11:51 AM 52.0 °F - 50.0 °F 93% 29.92 in 2.5 mi SSE 4.6 mph - 0.00 in   Overcast
11:58 AM 53.6 °F - 50.0 °F 88% 29.91 in 6.0 mi South 4.6 mph - N/A   Overcast
12:51 PM 54.0 °F - 51.1 °F 90% 29.88 in 6.0 mi Variable 3.5 mph - 0.01 in Rain Light Rain
1:51 PM 55.0 °F - 51.1 °F 86% 29.85 in 4.0 mi Variable 4.6 mph - 0.00 in Rain Light Rain
2:51 PM 55.0 °F - 52.0 °F 89% 29.83 in 6.0 mi South 4.6 mph - 0.00 in Rain Light Rain
3:51 PM 55.9 °F - 53.1 °F 90% 29.81 in 7.0 mi Calm Calm - 0.00 in Rain Light Rain
4:42 PM 55.4 °F - 53.6 °F 94% 29.79 in 7.0 mi South 3.5 mph - 0.01 in Rain Light Rain
4:51 PM 55.9 °F - 53.1 °F 90% 29.78 in 8.0 mi South 4.6 mph - 0.01 in   Overcast
5:51 PM 59.0 °F - 55.0 °F 87% 29.75 in 10.0 mi SW 11.5 mph 20.7 mph N/A   Overcast
6:51 PM 60.1 °F - 55.9 °F 86% 29.74 in 10.0 mi SW 17.3 mph 25.3 mph 0.00 in Rain Light Rain
7:13 PM 60.8 °F - 55.4 °F 82% 29.73 in 10.0 mi SW 20.7 mph 25.3 mph N/A   Overcast
7:51 PM 60.1 °F - 55.9 °F 86% 29.72 in 10.0 mi SW 18.4 mph 25.3 mph 0.00 in   Overcast
8:22 PM 60.8 °F - 55.4 °F 82% 29.71 in 10.0 mi SSW 12.7 mph 26.5 mph N/A   Overcast
8:51 PM 61.0 °F - 57.0 °F 87% 29.71 in 10.0 mi SW 21.9 mph 27.6 mph N/A   Overcast
9:16 PM 62.6 °F - 57.2 °F 82% 29.70 in 10.0 mi SW 25.3 mph 32.2 mph 0.00 in   Overcast
9:51 PM 62.1 °F - 55.9 °F 80% 29.70 in 10.0 mi SW 19.6 mph 27.6 mph 0.00 in   Mostly Cloudy
10:25 PM 57.2 °F - 51.8 °F 82% 29.76 in 6.0 mi West 28.8 mph 44.9 mph 0.04 in Rain , Thunderstorm Thunderstorms and Rain
10:41 PM 55.4 °F - 51.8 °F 88% 29.76 in 7.0 mi WSW 18.4 mph 28.8 mph 0.10 in Rain Light Rain
10:51 PM 55.9 °F - 51.1 °F 84% 29.76 in 7.0 mi WSW 15.0 mph - 0.11 in Rain Light Rain
11:51 PM 55.9 °F - 48.9 °F 77% 29.78 in 10.0 mi West 18.4 mph 26.5 mph 0.00 in   Scattered Clouds